Location: Góry Miechowskie
(50.3599°N, 20.1803°E)
Time: 01:57:13
(UTC+00:00)

S-56A Canister/Altair - Pass Details

Date: 13 September 2024
Orbit: 636 x 2487 km, 38.9° (Epoch: 15 October)

Event Time Altitude Azimuth Distance (km) Brightness Sun altitude
Rises 20:38:32 0° 258° (WSW) 3,906 11.4 -30.8°
Reaches altitude 10° 20:41:04 10° 250° (WSW) 3,163 10.8 -31.0°
Enters shadow 20:45:57 34° 217° (SW) 2,219 9.6 -31.4°
Maximum altitude 20:48:27 40° 184° (S) 2,191 - -31.6°
Drops below altitude 10° 20:59:02 10° 122° (ESE) 4,526 - -32.5°
Sets 21:03:27 0° 116° (ESE) 5,765 - -32.8°
